7 * 24
多渠道服务支持
STARLINK-5880是美国SpaceX公司星链(Starlink)项目的通信卫星,于2023年7月7日发射升空,属于星链低轨互联网星座的一员。该卫星运行在近地轨道,配备Ku/Ka波段通信载荷与霍尔推进器,支持高速互联网接入,可为全球偏远地区、海上用户提供稳定宽带服务,也具备自主避撞能力,寿命末期会主动离轨焚毁,减少太空垃圾影响。
美国
(US)
| 数据来源 | 国际轨道数据 |
| 星历时间: | 2026-09-10T12:46:24+0800 1天前 查看轨道信息 |
| 半长轴: | 6861.208km |
| 偏心率: | 0.0001042 |
| 轨道倾角: | 43.003° |
| 近地点辐角 | 254.778° |
| 升交点赤经 | 72.134° |
| 平近点角 | 105.295° |
| 近地点: | 482.356km |
| 远地点: | 483.786km |
| 周期: | 94.267分钟 |
| 每日圈数: | 15.275729 |